Weather History for Grand Marais Airport, MN

Change the Weather History Date:

Friday, June 7, 2013

  Actual Average Record
Temperature  
Mean Temperature 48 °F -  
Max Temperature 66 °F 63 °F 77 °F (2004)
Min Temperature 30 °F 43 °F 30 °F (2013)
Degree Days  
Heating Degree Days 17    
Moisture  
Dew Point 32 °F    
Average Humidity 52    
Maximum Humidity 93    
Minimum Humidity 24    
Precipitation  
Precipitation 0.00 in - - ()
Sea Level Pressure  
Sea Level Pressure 30.03 in    
Wind  
Wind Speed 3 mph (SE)    
Max Wind Speed 10 mph    
Max Gust Speed -    
Visibility 10 miles    
Events      
Averages and records for this station are not official NWS values.
T = Trace of Precipitation, MM = Missing Value Source: NWS Daily Summary

Daily Weather History Graph

Daily Weather History Graph

Search for Another Location

Airport:

Trip Planner

Search our weather history database for the weather conditions in past years. The results will help you decide how hot, cold, wet, or windy it might be!

Date:

Astronomy

Jun. 07, 2013 Rise Set
Actual Time 5:03 AM CDT 8:57 PM CDT
Civil Twilight 4:23 AM CDT 9:38 PM CDT
Nautical Twilight 3:28 AM CDT 10:33 PM CDT
Astronomical Twilight 2:03 AM CDT 11:59 PM CDT
Moon 4:32 AM CDT (6/7) 8:06 PM CDT (6/7)
Length of Visible Light 17h 14m
Length of Day
15h 53m
Waning Crescent, 1% of the Moon is Illuminated
Jun 7
Waning Crescent
Jun 8
New
Jun 16
First Quarter
Jun 23
Full
Jun 29
Last Quarter

Hourly Weather History & Observations

Time (CDT) Temp. Windchill Dew Point Humidity Pressure Visibility Wind Dir Wind Speed Gust Speed Precip Events Conditions
12:14 AM 37.4 °F 34.9 °F 33.8 °F 87% 30.07 in 10.0 mi North 3.5 mph - N/A   Clear
12:34 AM 37.4 °F - 33.8 °F 87% 30.07 in 10.0 mi Calm Calm - N/A   Clear
12:54 AM 37.4 °F - 33.8 °F 87% 30.06 in 10.0 mi Calm Calm - N/A   Clear
1:13 AM 37.4 °F - 33.8 °F 87% 30.06 in 10.0 mi Calm Calm - N/A   Clear
1:33 AM 37.4 °F - 33.8 °F 87% 30.06 in 10.0 mi Calm Calm - N/A   Clear
1:54 AM 35.6 °F - 30.2 °F 81% 30.06 in 10.0 mi Calm Calm - N/A   Clear
2:14 AM 33.8 °F 30.8 °F 30.2 °F 87% 30.05 in 10.0 mi NNW 3.5 mph - N/A   Clear
2:34 AM 33.8 °F 29.6 °F 30.2 °F 87% 30.05 in 10.0 mi NNW 4.6 mph - N/A   Clear
2:53 AM 33.8 °F 29.6 °F 30.2 °F 87% 30.05 in 10.0 mi NW 4.6 mph - N/A   Clear
3:13 AM 35.6 °F 32.8 °F 30.2 °F 81% 30.05 in 10.0 mi NNW 3.5 mph - N/A   Clear
3:33 AM 33.8 °F 28.6 °F 30.2 °F 87% 30.05 in 10.0 mi NNW 5.8 mph - N/A   Clear
3:54 AM 35.6 °F 30.7 °F 30.2 °F 81% 30.05 in 10.0 mi NNW 5.8 mph - N/A   Clear
4:13 AM 35.6 °F - 33.8 °F 93% 30.05 in 10.0 mi Calm Calm - N/A   Clear
4:33 AM 33.8 °F - 30.2 °F 87% 30.05 in 10.0 mi Calm Calm - N/A   Clear
4:53 AM 30.2 °F 25.4 °F 26.6 °F 86% 30.05 in 10.0 mi NNW 4.6 mph - N/A   Clear
5:13 AM 32.0 °F 27.5 °F 28.4 °F 87% 30.05 in 10.0 mi NNW 4.6 mph - N/A   Clear
5:34 AM 30.2 °F 23.4 °F 26.6 °F 86% 30.05 in 10.0 mi NNW 6.9 mph - N/A   Clear
5:54 AM 33.8 °F 28.6 °F 30.2 °F 87% 30.05 in 10.0 mi NNW 5.8 mph - N/A   Clear
6:13 AM 37.4 °F 33.8 °F 33.8 °F 87% 30.05 in 10.0 mi NNW 4.6 mph - N/A   Clear
6:34 AM 44.6 °F 42.2 °F 37.4 °F 76% 30.06 in 10.0 mi North 4.6 mph - N/A   Clear
6:53 AM 46.4 °F 43.5 °F 37.4 °F 71% 30.06 in 10.0 mi North 5.8 mph - N/A   Clear
7:13 AM 50.0 °F - 39.2 °F 66% 30.06 in 10.0 mi NNW 6.9 mph - N/A   Clear
7:34 AM 53.6 °F - 39.2 °F 58% 30.06 in 10.0 mi NNW 6.9 mph - N/A   Clear
7:54 AM 55.4 °F - 39.2 °F 54% 30.07 in 10.0 mi North 6.9 mph - N/A   Clear
8:14 AM 55.4 °F - 39.2 °F 54% 30.07 in 10.0 mi North 3.5 mph - N/A   Clear
8:33 AM 57.2 °F - 35.6 °F 44% 30.07 in 10.0 mi Calm Calm - N/A   Clear
8:53 AM 59.0 °F - 35.6 °F 42% 30.07 in 10.0 mi Calm Calm - N/A   Clear
9:14 AM 60.8 °F - 33.8 °F 36% 30.07 in 10.0 mi SSE 3.5 mph - N/A   Clear
9:33 AM 60.8 °F - 32.0 °F 34% 30.07 in 10.0 mi South 3.5 mph - N/A   Clear
9:54 AM 60.8 °F - 33.8 °F 36% 30.07 in 10.0 mi ESE 4.6 mph - N/A   Clear
10:14 AM 62.6 °F - 30.2 °F 30% 30.06 in 10.0 mi SE 3.5 mph - N/A   Clear
10:33 AM 62.6 °F - 30.2 °F 30% 30.06 in 10.0 mi SSE 5.8 mph - N/A   Clear
10:54 AM 62.6 °F - 32.0 °F 32% 30.06 in 10.0 mi SSE 3.5 mph - N/A   Clear
11:13 AM 62.6 °F - 28.4 °F 27% 30.06 in 10.0 mi ESE 6.9 mph - N/A   Clear
11:34 AM 64.4 °F - 30.2 °F 28% 30.06 in 10.0 mi SSE 3.5 mph - N/A   Clear
11:53 AM 64.4 °F - 30.2 °F 28% 30.05 in 10.0 mi SSE 5.8 mph - N/A   Clear
12:14 PM 64.4 °F - 30.2 °F 28% 30.05 in 10.0 mi SE 4.6 mph - N/A   Clear
12:34 PM 64.4 °F - 30.2 °F 28% 30.04 in 10.0 mi South 6.9 mph - N/A   Clear
12:53 PM 64.4 °F - 28.4 °F 26% 30.04 in 10.0 mi South 4.6 mph - N/A   Scattered Clouds
1:14 PM 66.2 °F - 30.2 °F 26% 30.04 in 10.0 mi SE 6.9 mph - N/A   Scattered Clouds
1:34 PM 66.2 °F - 30.2 °F 26% 30.03 in 10.0 mi SE 5.8 mph - N/A   Clear
1:54 PM 64.4 °F - 30.2 °F 28% 30.03 in 10.0 mi SSE 6.9 mph - N/A   Clear
2:13 PM 64.4 °F - 30.2 °F 28% 30.03 in 10.0 mi SE 6.9 mph - N/A   Scattered Clouds
2:33 PM 64.4 °F - 30.2 °F 28% 30.03 in 10.0 mi SSE 6.9 mph - N/A   Clear
2:53 PM 64.4 °F - 30.2 °F 28% 30.02 in 10.0 mi South 5.8 mph - N/A   Scattered Clouds
3:13 PM 64.4 °F - 28.4 °F 26% 30.02 in 10.0 mi SSE 6.9 mph - N/A   Clear
3:34 PM 64.4 °F - 28.4 °F 26% 30.02 in 10.0 mi SSE 4.6 mph - N/A   Clear
3:53 PM 66.2 °F - 30.2 °F 26% 30.01 in 10.0 mi SSE 5.8 mph - N/A   Clear
4:14 PM 66.2 °F - 28.4 °F 24% 30.01 in 10.0 mi South 10.4 mph - N/A   Clear
4:34 PM 64.4 °F - 28.4 °F 26% 30.00 in 10.0 mi SSE 8.1 mph - N/A   Clear
4:53 PM 64.4 °F - 28.4 °F 26% 30.00 in 10.0 mi SSE 5.8 mph - N/A   Clear
5:14 PM 64.4 °F - 28.4 °F 26% 30.00 in 10.0 mi SE 6.9 mph - N/A   Clear
5:34 PM 64.4 °F - 28.4 °F 26% 30.00 in 10.0 mi SE 4.6 mph - N/A   Clear
5:53 PM 62.6 °F - 28.4 °F 27% 30.00 in 10.0 mi SE 4.6 mph - N/A   Clear
6:13 PM 62.6 °F - 28.4 °F 27% 29.99 in 10.0 mi SE 4.6 mph - N/A   Clear
6:33 PM 62.6 °F - 28.4 °F 27% 29.99 in 10.0 mi South 4.6 mph - N/A   Clear
6:54 PM 62.6 °F - 28.4 °F 27% 29.99 in 10.0 mi SE 3.5 mph - N/A   Clear
7:14 PM 60.8 °F - 28.4 °F 29% 29.99 in 10.0 mi SSE 3.5 mph - N/A   Clear
7:33 PM 60.8 °F - 30.2 °F 31% 29.99 in 10.0 mi South 4.6 mph - N/A   Clear
7:54 PM 57.2 °F - 30.2 °F 36% 29.99 in 10.0 mi Calm Calm - N/A   Clear
8:14 PM 55.4 °F - 32.0 °F 41% 29.99 in 10.0 mi Calm Calm - N/A   Clear
8:34 PM 53.6 °F - 33.8 °F 47% 29.98 in 10.0 mi Calm Calm - N/A   Clear
8:54 PM 51.8 °F - 33.8 °F 50% 29.98 in 10.0 mi Calm Calm - N/A   Clear
9:13 PM 50.0 °F - 35.6 °F 58% 29.98 in 10.0 mi Calm Calm - N/A   Clear
9:34 PM 48.2 °F - 35.6 °F 62% 29.98 in 10.0 mi Calm Calm - N/A   Clear
9:53 PM 46.4 °F - 35.6 °F 66% 29.98 in 10.0 mi Calm Calm - N/A   Clear
10:14 PM 46.4 °F 45.2 °F 35.6 °F 66% 29.99 in 10.0 mi NNW 3.5 mph - N/A   Clear
10:34 PM 46.4 °F 45.2 °F 35.6 °F 66% 29.98 in 10.0 mi NNW 3.5 mph - N/A   Clear
10:54 PM 46.4 °F - 35.6 °F 66% 29.98 in 10.0 mi Calm Calm - N/A   Clear
11:13 PM 44.6 °F 43.1 °F 35.6 °F 71% 29.98 in 10.0 mi NNW 3.5 mph - N/A   Clear
11:33 PM 44.6 °F - 35.6 °F 71% 29.98 in 10.0 mi Calm Calm - N/A   Clear
11:53 PM 42.8 °F 41.1 °F 33.8 °F 70% 29.98 in 10.0 mi North 3.5 mph - N/A   Clear